| time (UTC) | temp F | wind direction | speed knots | gust knots | rain 1hr in | rain 24hr in | rain mn in | humidity % | barometer mb |
| 20260504000018 | 68 | 215 | 1.7 | 6.1 | 0.00 | 0.00 | 0.00 | 46 | 1005.0 |
| 20260503235018 | 68 | 196 | 1.7 | 4.3 | 0.00 | 0.00 | 0.00 | 46 | 1005.0 |
| 20260503234018 | 68 | 201 | 2.6 | 7.0 | 0.00 | 0.00 | 0.00 | 45 | 1005.0 |
| 20260503233018 | 68 | 185 | 2.6 | 6.1 | 0.00 | 0.00 | 0.00 | 45 | 1005.1 |
| 20260503232019 | 68 | 206 | 3.5 | 7.8 | 0.00 | 0.00 | 0.00 | 44 | 1005.1 |
| 20260503231016 | 68 | 216 | 3.5 | 7.0 | 0.00 | 0.00 | 0.00 | 44 | 1005.2 |
| 20260503230019 | 68 | 188 | 2.6 | 6.1 | 0.00 | 0.00 | 0.00 | 44 | 1005.4 |
| 20260503225019 | 68 | 165 | 3.5 | 8.7 | 0.00 | 0.00 | 0.00 | 44 | 1005.4 |
| 20260503224019 | 67 | 205 | 3.5 | 8.7 | 0.00 | 0.00 | 0.00 | 44 | 1005.6 |
| 20260503223040 | 67 | 209 | 2.6 | 5.2 | 0.00 | 0.00 | 0.00 | 44 | 1005.8 |
| 20260503222017 | 67 | 210 | 2.6 | 6.1 | 0.00 | 0.00 | 0.00 | 44 | 1005.9 |
| 20260503221017 | 67 | 189 | 3.5 | 7.8 | 0.00 | 0.00 | 0.00 | 44 | 1006.1 |
| 20260503220037 | 66 | 204 | 3.5 | 7.8 | 0.00 | 0.00 | 0.00 | 44 | 1006.1 |
| 20260503215021 | 66 | 201 | 2.6 | 9.6 | 0.00 | 0.00 | 0.00 | 45 | 1006.2 |
| 20260503214021 | 66 | 212 | 4.3 | 8.7 | 0.00 | 0.00 | 0.00 | 43 | 1006.2 |
| 20260503213018 | 66 | 215 | 3.5 | 7.8 | 0.00 | 0.00 | 0.00 | 42 | 1006.3 |
| 20260503212018 | 66 | 208 | 2.6 | 7.0 | 0.00 | 0.00 | 0.00 | 42 | 1006.4 |
| 20260503211018 | 65 | 201 | 3.5 | 7.0 | 0.00 | 0.00 | 0.00 | 43 | 1006.5 |
| 20260503210018 | 64 | 200 | 2.6 | 7.0 | 0.00 | 0.00 | 0.00 | 44 | 1006.7 |
| 20260503205018 | 64 | 193 | 3.5 | 7.0 | 0.00 | 0.00 | 0.00 | 44 | 1006.8 |
| 20260503204039 | 64 | 196 | 3.5 | 7.8 | 0.00 | 0.00 | 0.00 | 45 | 1007.2 |
| 20260503203038 | 64 | 219 | 3.5 | 7.8 | 0.00 | 0.00 | 0.00 | 47 | 1007.3 |
| 20260503202019 | 64 | 182 | 3.5 | 10.4 | 0.00 | 0.00 | 0.00 | 46 | 1007.6 |
| 20260503201019 | 63 | 212 | 4.3 | 9.6 | 0.00 | 0.00 | 0.00 | 49 | 1007.7 |
| 20260503200020 | 62 | 196 | 4.3 | 8.7 | 0.00 | 0.00 | 0.00 | 52 | 1008.0 |
| 20260503195019 | 62 | 192 | 3.5 | 9.6 | 0.00 | 0.00 | 0.00 | 52 | 1008.0 |
| 20260503194017 | 62 | 197 | 3.5 | 9.6 | 0.00 | 0.00 | 0.00 | 52 | 1008.2 |
| 20260503193017 | 61 | 188 | 3.5 | 10.4 | 0.00 | 0.00 | 0.00 | 52 | 1008.3 |
| 20260503192040 | 59 | 209 | 2.6 | 7.0 | 0.00 | 0.00 | 0.00 | 52 | 1008.5 |
| 20260503191020 | 58 | 224 | 3.5 | 7.8 | 0.00 | 0.00 | 0.00 | 55 | 1008.6 |
| 20260503190020 | 58 | 212 | 3.5 | 10.4 | 0.00 | 0.00 | 0.00 | 56 | 1008.8 |
| 20260503185017 | 57 | 210 | 3.5 | 9.6 | 0.00 | 0.00 | 0.00 | 58 | 1009.0 |
| 20260503184018 | 55 | 189 | 2.6 | 6.1 | 0.00 | 0.00 | 0.00 | 62 | 1009.2 |
| 20260503183018 | 55 | 196 | 2.6 | 7.0 | 0.00 | 0.00 | 0.00 | 62 | 1009.3 |
| 20260503182018 | 55 | 204 | 3.5 | 7.8 | 0.00 | 0.00 | 0.00 | 63 | 1009.6 |
| 20260503181018 | 54 | 215 | 3.5 | 9.6 | 0.00 | 0.00 | 0.00 | 63 | 1010.1 |
| 20260503180018 | 54 | 221 | 3.5 | 7.0 | 0.00 | 0.00 | 0.00 | 65 | 1010.5 |
| 20260503175018 | 54 | 195 | 3.5 | 9.6 | 0.00 | 0.00 | 0.00 | 65 | 1010.9 |
| 20260503174018 | 53 | 185 | 3.5 | 7.8 | 0.00 | 0.00 | 0.00 | 67 | 1011.1 |
| 20260503173019 | 53 | 212 | 2.6 | 7.0 | 0.00 | 0.00 | 0.00 | 70 | 1011.3 |
| 20260503172019 | 53 | 212 | 3.5 | 9.6 | 0.00 | 0.00 | 0.00 | 71 | 1011.7 |
| 20260503171039 | 52 | 217 | 2.6 | 5.2 | 0.00 | 0.00 | 0.00 | 74 | 1011.7 |
| 20260503131037 | 52 | 216 | 2.6 | 7.8 | 0.00 | 0.00 | 0.00 | 57 | 1013.3 |
| 20260503081030 | 46 | 224 | 1.7 | 2.6 | 0.00 | 0.00 | 0.00 | 59 | 1013.7 |
| 20260503080110 | 46 | 241 | 1.7 | 2.6 | 0.00 | 0.00 | 0.00 | 58 | 1013.7 |
| 20260503072017 | 47 | 237 | 1.7 | 4.3 | 0.00 | 0.00 | 0.00 | 56 | 1013.9 |
| 20260503071037 | 47 | 227 | 1.7 | 5.2 | 0.00 | 0.00 | 0.00 | 56 | 1013.9 |
| 20260503055038 | 48 | 206 | 1.7 | 3.5 | 0.00 | 0.00 | 0.00 | 57 | 1014.6 |
| 20260503054018 | 48 | 217 | 1.7 | 3.5 | 0.00 | 0.00 | 0.00 | 57 | 1014.6 |
| 20260503053018 | 48 | 222 | 1.7 | 4.3 | 0.00 | 0.00 | 0.00 | 57 | 1014.7 |
| 20260503052018 | 48 | 244 | 1.7 | 2.6 | 0.00 | 0.00 | 0.00 | 57 | 1014.8 |
| 20260503051018 | 48 | 236 | 1.7 | 4.3 | 0.00 | 0.00 | 0.00 | 57 | 1014.9 |
| 20260503050018 | 48 | 223 | 1.7 | 4.3 | 0.00 | 0.00 | 0.00 | 57 | 1015.0 |
| 20260503045019 | 48 | 227 | 1.7 | 2.6 | 0.00 | 0.00 | 0.00 | 57 | 1015.0 |
| 20260503044017 | 48 | 214 | 1.7 | 5.2 | 0.00 | 0.00 | 0.00 | 56 | 1015.0 |
| 20260503043039 | 48 | 233 | 1.7 | 3.5 | 0.00 | 0.00 | 0.00 | 56 | 1015.0 |
| 20260503042020 | 48 | 223 | 1.7 | 4.3 | 0.00 | 0.00 | 0.00 | 58 | 1015.0 |
| 20260503041019 | 48 | 245 | 1.7 | 2.6 | 0.00 | 0.00 | 0.00 | 58 | 1015.1 |
| 20260503040017 | 48 | 233 | 0.9 | 2.6 | 0.00 | 0.00 | 0.00 | 58 | 1015.1 |
| 20260503035017 | 48 | 244 | 1.7 | 3.5 | 0.00 | 0.00 | 0.00 | 57 | 1015.2 |
| 20260503034017 | 48 | 238 | 1.7 | 2.6 | 0.00 | 0.00 | 0.00 | 57 | 1015.2 |
| 20260503033017 | 48 | 216 | 1.7 | 2.6 | 0.00 | 0.00 | 0.00 | 60 | 1015.2 |
| 20260503032020 | 47 | 260 | 0.9 | 2.6 | 0.00 | 0.00 | 0.00 | 63 | 1015.3 |
| 20260503031038 | 47 | 233 | 0.9 | 2.6 | 0.00 | 0.00 | 0.00 | 66 | 1015.4 |
| 20260503030017 | 46 | 242 | 0.9 | 4.3 | 0.00 | 0.00 | 0.00 | 71 | 1015.4 |
| 20260503025017 | 46 | 74 | 0.9 | 1.7 | 0.00 | 0.00 | 0.00 | 73 | 1015.5 |
| 20260503024018 | 45 | 96 | 0.9 | 1.7 | 0.00 | 0.00 | 0.00 | 79 | 1015.4 |
| 20260503023018 | 45 | 85 | 0.9 | 1.7 | 0.00 | 0.00 | 0.00 | 80 | 1015.5 |
| 20260503022018 | 45 | 101 | 0.9 | 1.7 | 0.00 | 0.00 | 0.00 | 81 | 1015.5 |
| 20260503021038 | 45 | 85 | 0.9 | 0.9 | 0.00 | 0.00 | 0.00 | 81 | 1015.5 |
| 20260503020018 | 46 | 75 | 0.9 | 1.7 | 0.00 | 0.00 | 0.00 | 80 | 1015.4 |
| 20260503015019 | 46 | 94 | 0.9 | 0.9 | 0.00 | 0.00 | 0.00 | 80 | 1015.3 |
| 20260503014018 | 46 | 70 | 0.9 | 0.9 | 0.00 | 0.00 | 0.00 | 79 | 1015.3 |
| 20260503013019 | 47 | 78 | 0.9 | 0.9 | 0.00 | 0.00 | 0.00 | 79 | 1015.3 |
| 20260503012019 | 47 | 76 | 0.9 | 1.7 | 0.00 | 0.00 | 0.00 | 78 | 1015.3 |
| 20260503011019 | 48 | 107 | 0.9 | 1.7 | 0.00 | 0.01 | 0.00 | 77 | 1015.3 |
| 20260503010016 | 48 | 23 | 0.9 | 2.6 | 0.00 | 0.01 | 0.00 | 76 | 1015.3 |
| 20260503005019 | 48 | 273 | 0.9 | 3.5 | 0.00 | 0.01 | 0.00 | 75 | 1015.4 |
| 20260503004020 | 49 | 48 | 0.9 | 1.7 | 0.00 | 0.01 | 0.00 | 73 | 1015.4 |
| 20260503003040 | 49 | 57 | 0.9 | 1.7 | 0.00 | 0.01 | 0.00 | 73 | 1015.4 |
| 20260503002017 | 50 | 69 | 0.9 | 2.6 | 0.00 | 0.01 | 0.00 | 72 | 1015.5 |
| 20260503001017 | 50 | 67 | 0.9 | 2.6 | 0.00 | 0.01 | 0.00 | 72 | 1015.5 |